Benton Harbor, MI

3:08 PM EDT on August 30, 2016 (GMT -0400)
Southwest Michigan Regional

Weather History for KBEH - November, 2012

Change the Weather History Date:

Monday, November 26, 2012

  Actual Average Record
Temperature  
Mean Temperature 36 °F -  
Max Temperature 37 °F 44 °F 64 °F (1984)
Min Temperature 33 °F 29 °F 13 °F (1991)
Degree Days  
Heating Degree Days 30    
Moisture  
Dew Point 25 °F    
Average Humidity 65    
Maximum Humidity 75    
Minimum Humidity 57    
Precipitation  
Precipitation 0.00 in - - ()
Sea Level Pressure  
Sea Level Pressure 30.18 in    
Wind  
Wind Speed 7 mph (NW)    
Max Wind Speed 10 mph    
Max Gust Speed -    
Visibility 10 miles    
Events      
Averages and records for this station are not official NWS values.
T = Trace of Precipitation, MM = Missing Value Source: NWS Daily Summary

Daily Weather History Graph

Daily Weather History Graph

Search for Another Location

Airport or City:

Trip Planner

Search our weather history database for the weather conditions in past years. The results will help you decide how hot, cold, wet, or windy it might be!

Date:

Astronomy

Nov. 26, 2012 Rise Set
Actual Time 7:49 AM EST 5:16 PM EST
Civil Twilight 7:18 AM EST 5:47 PM EST
Nautical Twilight 6:44 AM EST 6:21 PM EST
Astronomical Twilight 6:10 AM EST 6:55 PM EST
Moon 4:09 PM EST (11/26) 5:58 AM EST (11/26)
Length of Visible Light 10h 28m
Length of Day
9h 26m
Waxing Gibbous, 97% of the Moon is Illuminated
Nov 26
Waxing Gibbous
Nov 28
Full
Dec 6
Last Quarter
Dec 13
New
Dec 20
First Quarter

Hourly Weather History & Observations

Time (EST) Temp. Windchill Dew Point Humidity Pressure Visibility Wind Dir Wind Speed Gust Speed Precip Events Conditions
12:53 AM 37.9 °F 30.9 °F 27.0 °F 65% 30.05 in 10.0 mi WNW 10.4 mph - N/A   Partly Cloudy
1:53 AM 37.9 °F 31.5 °F 28.0 °F 68% 30.06 in 10.0 mi NW 9.2 mph - N/A   Scattered Clouds
2:14 AM 37.4 °F 34.9 °F 30.2 °F 75% 30.05 in 10.0 mi Variable 3.5 mph - N/A   Mostly Cloudy
2:53 AM 37.9 °F 32.1 °F 28.9 °F 70% 30.08 in 10.0 mi NNW 8.1 mph - N/A   Mostly Cloudy
3:02 AM 37.4 °F 32.8 °F 28.4 °F 70% 30.06 in 10.0 mi Variable 5.8 mph - N/A   Mostly Cloudy
3:34 AM 37.4 °F 32.8 °F 26.6 °F 65% 30.08 in 10.0 mi NW 5.8 mph - N/A   Overcast
3:53 AM 37.0 °F 32.4 °F 27.0 °F 67% 30.09 in 10.0 mi Variable 5.8 mph - N/A   Mostly Cloudy
4:08 AM 37.4 °F 32.8 °F 28.4 °F 70% 30.08 in 10.0 mi NW 5.8 mph - N/A   Mostly Cloudy
4:53 AM 36.0 °F 29.0 °F 26.1 °F 67% 30.12 in 10.0 mi NW 9.2 mph - N/A   Mostly Cloudy
5:16 AM 35.6 °F 29.2 °F 26.6 °F 70% 30.10 in 10.0 mi WNW 8.1 mph - N/A   Scattered Clouds
5:41 AM 35.6 °F 29.9 °F 26.6 °F 70% 30.11 in 10.0 mi WNW 6.9 mph - N/A   Mostly Cloudy
5:53 AM 36.0 °F 29.6 °F 27.0 °F 70% 30.13 in 10.0 mi WNW 8.1 mph - N/A   Mostly Cloudy
6:53 AM 36.0 °F 30.3 °F 26.1 °F 67% 30.15 in 10.0 mi NW 6.9 mph - N/A   Overcast
7:13 AM 35.6 °F 29.9 °F 26.6 °F 70% 30.14 in 10.0 mi Variable 6.9 mph - N/A   Overcast
7:53 AM 35.1 °F 31.0 °F 24.1 °F 64% 30.17 in 10.0 mi Variable 4.6 mph - N/A   Overcast
8:53 AM 34.0 °F 28.8 °F 23.0 °F 64% 30.20 in 10.0 mi NW 5.8 mph - N/A   Mostly Cloudy
9:53 AM 35.1 °F 31.0 °F 21.9 °F 59% 30.23 in 10.0 mi Variable 4.6 mph - N/A   Overcast
10:53 AM 35.1 °F 28.6 °F 21.9 °F 59% 30.24 in 10.0 mi NNW 8.1 mph - N/A   Overcast
11:53 AM 36.0 °F 31.1 °F 21.9 °F 57% 30.24 in 10.0 mi NNW 5.8 mph - N/A   Overcast
12:53 PM 36.0 °F 30.3 °F 21.9 °F 57% 30.23 in 10.0 mi Variable 6.9 mph - N/A   Overcast
1:53 PM 36.0 °F 31.1 °F 23.0 °F 59% 30.24 in 10.0 mi Variable 5.8 mph - N/A   Overcast
2:53 PM 35.1 °F 30.1 °F 23.0 °F 61% 30.23 in 10.0 mi NW 5.8 mph - N/A   Overcast
3:53 PM 35.1 °F 27.9 °F 23.0 °F 61% 30.25 in 10.0 mi NW 9.2 mph - N/A   Overcast
4:53 PM 35.1 °F 30.1 °F 23.0 °F 61% 30.25 in 10.0 mi Variable 5.8 mph - N/A   Overcast
5:53 PM 34.0 °F 28.8 °F 23.0 °F 64% 30.26 in 10.0 mi Variable 5.8 mph - N/A   Overcast
6:53 PM 34.0 °F 31.0 °F 23.0 °F 64% 30.28 in 10.0 mi NW 3.5 mph - N/A   Overcast
7:53 PM 35.1 °F 30.1 °F 23.0 °F 61% 30.30 in 10.0 mi NW 5.8 mph - N/A   Overcast
8:53 PM 35.1 °F 27.9 °F 23.0 °F 61% 30.31 in 10.0 mi NNW 9.2 mph - N/A   Overcast
9:53 PM 34.0 °F 28.0 °F 21.9 °F 61% 30.31 in 10.0 mi NW 6.9 mph - N/A   Overcast
10:53 PM 34.0 °F 29.8 °F 21.9 °F 61% 30.32 in 10.0 mi Variable 4.6 mph - N/A   Overcast
11:53 PM 33.1 °F 27.7 °F 21.9 °F 64% 30.34 in 10.0 mi Variable 5.8 mph - N/A   Overcast